User: anonymous
Location: Pine Mountain Observatory
(43.7910°N, 120.9377°W)
Time: 21:37:44
(UTC-07:00)
Language:

Cosmos 1076 Rocket - Orbit

View from above orbital plane
View from above orbital plane
View from above satellite
View from above satellite

Ground track
Ground track

The orbit data is extracted from the following two-line orbital elements,

1 11267U 79011B   14209.41633700  .00000333  00000-0  33336-4 0  4733
2 11267 082.5274 144.9243 0018569 133.6767 011.3098 14.88159118918552
Epoch (UTC): 28 July 2014 09:59:31
Eccentricity: 0.0018569
inclination: 82.5274°
perigee height: 591 km
apogee height: 616 km
right ascension of ascending node: 144.9243°
argument of perigee: 133.6767°
revolutions per day: 14.88159118
mean anomaly at epoch: 11.3098°
orbit number at epoch: 91855

The dashed part of the orbit path shows where the satellite is in the earth's shadow,  

DLR